Vertical_Velocity
8 2 -1 -3 2 3 -0 2 -2 -3 -1 -7 -2 -7 -2 -1 -5 -6 -2 -3 -1 1
9 9 2 10 0 2 -0 -7 7 -11 -1 -3 -12 13 -7 -4 1 0 -3 -1 -1 -0
7 4 6 -0 4 6 -1 -2 3 6 2 -4 9 -5 -2 2 -1 -3 -0 -1 -2 -1
3 4 7 10 6 -4 -5 8 -1 6 -11 2 -3 -4 -3 2 -1 -2 -2 0 -0 -2
5 13 7 1 -1 2 8 -5 9 11 -9 -8 0 0 6 1 -1 -1 -1 -1 -2 1
8 -8 -0 1 4 6 -0 5 1 -12 -4 1 0 11 3 -1 -5 0 0 0 -0 -1
8 8 3 1 11 2 3 -1 -0 5 -4 3 1 13 -3 -5 -1 -1 0 2 0 1
1 3 7 4 4 1 -4 -3 3 -3 -7 1 22 -4 -2 -1 -2 1 2 2 1 -0
3 1 2 3 5 7 4 4 -7 -5 7 22 -0 -6 -1 -5 -2 2 -0 0 1 0
2 3 5 3 0 5 10 7 8 7 24 0 0 1 2 -1 1 0 -2 0 -1 -1
0 3 0 3 3 14 9 8 -5 13 1 -2 4 4 1 1 -1 -2 0 2 2 -0
2 4 -3 11 5 -2 2 21 7 7 2 -2 8 -1 0 -1 0 -1 3 1 2 -1
1 -1 -0 5 22 14 5 1 5 5 3 2 -0 2 -2 -2 -1 1 3 -0 1 0
-3 -5 -2 -2 0 3 5 4 2 1 2 -1 -2 4 0 1 1 -1 -0 0 2 2
Height
3128 3126 3126 3126 3125 3125 3124 3123 3122 3120 3115 3112 3110 3107 3101 3096 3091 3086 3081 3076 3072 3068
3122 3121 3120 3120 3119 3119 3117 3115 3113 3110 3108 3105 3101 3096 3092 3087 3081 3075 3070 3066 3062 3058
3116 3115 3114 3113 3112 3111 3109 3107 3103 3101 3099 3095 3091 3087 3083 3077 3071 3066 3062 3059 3055 3052
3110 3109 3109 3107 3105 3103 3100 3099 3097 3094 3090 3086 3083 3078 3073 3068 3063 3060 3056 3052 3049 3046
3104 3103 3101 3099 3096 3094 3094 3093 3089 3084 3082 3077 3074 3070 3065 3060 3057 3053 3049 3046 3043 3039
3097 3095 3091 3089 3088 3087 3087 3084 3080 3077 3072 3070 3065 3060 3056 3053 3051 3046 3042 3039 3035 3031
3088 3086 3084 3083 3080 3080 3078 3075 3071 3066 3065 3060 3056 3051 3049 3046 3043 3039 3036 3032 3028 3024
3080 3078 3077 3075 3074 3072 3069 3065 3061 3059 3054 3047 3045 3045 3042 3038 3034 3031 3027 3024 3021 3017
3070 3070 3069 3068 3066 3063 3060 3055 3052 3047 3040 3041 3040 3038 3034 3028 3025 3023 3020 3017 3013 3010
3064 3063 3061 3059 3058 3054 3048 3044 3039 3035 3033 3035 3033 3028 3023 3020 3018 3015 3013 3009 3006 3002
3057 3055 3053 3051 3048 3042 3038 3034 3035 3031 3031 3028 3025 3019 3016 3014 3010 3007 3004 3001 2998 2994
3049 3047 3045 3041 3040 3036 3031 3027 3029 3026 3022 3018 3016 3011 3008 3006 3002 2998 2996 2993 2989 2987
3041 3039 3037 3034 3030 3030 3027 3024 3021 3017 3013 3010 3007 3004 3001 2997 2993 2990 2987 2984 2980 2978
3032 3030 3029 3027 3024 3021 3019 3016 3012 3007 3005 3001 2998 2995 2992 2988 2983 2980 2977 2974 2971 2969